CW2550 Weather Reports


Display with metric or nautical units.
time (UTC)temp
F
wind
direction
speed
MPH
gust
MPH
rain 1hr
in
rain 24hr
in
rain mn
in
humidity
%
barometer
mb
20260904174551 88 0 1.0 4.0 0.00 0.00 0.00 71 1011.0
20260904173046 87 355 2.0 5.0 0.00 0.00 0.00 72 1010.9
20260904171615 87 0 0.0 2.0 0.00 0.00 0.00 73 1010.9
20260904170051 87 0 0.0 3.0 0.00 0.00 0.00 75 1010.7
20260904164549 86 0 0.0 3.0 0.00 0.00 0.00 75 1010.7
20260904163052 86 344 2.0 3.0 0.00 0.00 0.00 75 1010.6
20260904161559 86 0 0.0 2.0 0.00 0.00 0.00 75 1010.6
20260904160056 85 0 0.0 0.0 0.00 0.00 0.00 75 1010.3
20260904154550 84 0 0.0 2.0 0.00 0.00 0.00 76 1010.5
20260904153108 84 273 0.0 3.0 0.00 0.00 0.00 76 1010.5
20260904151548 83 0 0.0 0.0 0.00 0.00 0.00 77 1010.5
20260904150051 81 0 0.0 3.0 0.00 0.00 0.00 82 1010.6
20260904144545 80 216 1.0 6.0 0.00 0.00 0.00 83 1010.5
20260904143112 79 198 3.0 6.0 0.00 0.00 0.00 84 1010.3
20260904141549 78 0 1.0 5.0 0.00 0.00 0.00 86 1010.4
20260904140045 77 0 0.0 5.0 0.00 0.00 0.00 88 1010.5
20260904134558 75 198 2.0 5.0 0.00 0.00 0.00 89 1010.4
20260904133106 75 206 3.0 7.0 0.00 0.00 0.00 90 1010.5
20260904131552 74 208 3.0 6.0 0.00 0.00 0.00 90 1010.3
20260904130055 73 193 3.0 7.0 0.00 0.00 0.00 91 1010.2
20260904124542 72 203 4.0 8.0 0.00 0.04 0.00 91 1010.0
20260904123053 72 209 3.0 7.0 0.00 0.04 0.00 91 1009.8
20260904121547 72 195 0.0 7.0 0.00 0.04 0.00 91 1009.7
20260904120049 72 192 3.0 7.0 0.00 0.04 0.00 91 1009.5
20260904114545 72 210 2.0 4.0 0.00 0.22 0.00 91 1009.5
20260904113056 72 211 2.0 4.0 0.00 0.22 0.00 91 1009.4
20260904111550 73 211 0.0 2.0 0.00 0.22 0.00 91 1009.4
20260904110046 73 0 0.0 2.0 0.00 0.22 0.00 91 1009.4
20260904104552 73 192 3.0 6.0 0.00 0.22 0.00 91 1009.2
20260904103049 73 198 3.0 5.0 0.00 0.22 0.00 90 1009.3
20260904101557 74 198 2.0 4.0 0.00 0.22 0.00 90 1009.3
20260904100041 74 197 1.0 4.0 0.00 0.22 0.00 90 1009.1
20260904094554 74 205 2.0 6.0 0.00 0.22 0.00 89 1009.1
20260904093049 74 207 3.0 8.0 0.00 0.22 0.00 89 1009.0
20260904091557 74 202 4.0 7.0 0.00 0.22 0.00 90 1008.9
20260904090054 74 201 4.0 7.0 0.00 0.22 0.00 89 1008.8
20260904084559 74 207 3.0 8.0 0.00 0.22 0.00 90 1008.7
20260904083049 74 198 4.0 9.0 0.00 0.22 0.00 90 1008.6
20260904081553 74 198 5.0 9.0 0.00 0.22 0.00 90 1008.5
20260904080113 74 205 3.0 7.0 0.00 0.22 0.00 91 1008.5
20260904074548 74 221 3.0 8.0 0.00 0.22 0.00 91 1008.5
20260904073057 74 172 3.0 8.0 0.00 0.22 0.00 92 1008.6
20260904071552 73 213 2.0 5.0 0.00 0.22 0.00 92 1008.6
20260904070058 73 195 3.0 5.0 0.00 0.22 0.00 92 1008.7
20260904064547 73 185 1.0 4.0 0.00 0.22 0.00 91 1008.7
20260904063112 74 0 0.0 0.0 0.00 0.22 0.00 91 1008.8
20260904061551 74 0 0.0 2.0 0.00 0.22 0.00 91 1008.8
20260904060052 74 178 0.0 3.0 0.00 0.22 0.00 91 1008.9
20260904054553 74 174 1.0 3.0 0.00 0.22 0.00 90 1008.9
20260904053105 74 0 0.0 0.0 0.00 0.22 0.00 90 1008.8
20260904051553 74 0 0.0 2.0 0.00 0.22 0.00 88 1008.7
20260904050056 75 0 0.0 1.0 0.00 0.22 0.00 88 1008.8
20260904044547 75 0 0.0 3.0 0.00 0.22 0.22 88 1008.8
20260904043059 75 185 1.0 4.0 0.00 0.22 0.22 87 1008.5
20260904041549 76 182 1.0 3.0 0.00 0.22 0.22 86 1008.6
20260904040057 76 177 1.0 4.0 0.00 0.22 0.22 86 1008.6
20260904034550 76 158 2.0 5.0 0.00 0.22 0.22 85 1008.7
20260904033045 77 183 1.0 3.0 0.00 0.22 0.22 85 1008.9
20260904031555 77 181 2.0 6.0 0.00 0.22 0.22 84 1008.8
20260904030058 77 213 2.0 7.0 0.00 0.22 0.22 84 1008.7
20260904024552 77 188 2.0 7.0 0.00 0.22 0.22 83 1008.6
20260904023044 78 173 3.0 6.0 0.00 0.22 0.22 83 1008.5
20260904021608 78 184 1.0 5.0 0.00 0.22 0.22 83 1008.6
20260904020056 78 146 1.0 4.0 0.00 0.22 0.22 82 1008.6
20260904014605 79 179 2.0 6.0 0.00 0.22 0.22 81 1008.6
20260904013103 79 158 1.0 5.0 0.00 0.22 0.22 80 1008.3
20260904011601 80 162 0.0 4.0 0.00 0.22 0.22 79 1008.2
20260904010052 80 152 3.0 7.0 0.00 0.22 0.22 78 1008.0
20260904004546 81 145 3.0 10.0 0.00 0.22 0.22 77 1008.0
20260904003050 81 171 4.0 10.0 0.00 0.22 0.22 76 1008.0
20260904001622 81 146 3.0 8.0 0.00 0.22 0.22 75 1008.0
20260903234557 82 170 4.0 10.0 0.00 0.22 0.22 72 1008.2
20260903233051 83 172 7.0 16.0 0.00 0.22 0.22 71 1008.0
20260903231550 83 146 7.0 17.0 0.00 0.22 0.22 70 1007.7
20260903230052 84 155 5.0 11.0 0.00 0.22 0.22 70 1007.2
20260903224544 84 183 5.0 11.0 0.00 0.22 0.22 69 1007.5
20260903223048 84 176 6.0 12.0 0.00 0.22 0.22 69 1007.5
20260903221551 84 158 4.0 17.0 0.00 0.22 0.22 69 1007.6
20260903220048 84 179 8.0 16.0 0.00 0.22 0.22 66 1007.9
20260903214541 84 165 5.0 11.0 0.00 0.22 0.22 67 1008.1
20260903213052 85 126 4.0 11.0 0.00 0.22 0.22 67 1007.9
20260903211553 84 166 7.0 19.0 0.00 0.22 0.22 65 1008.1
20260903210123 84 177 6.0 12.0 0.00 0.22 0.22 65 1008.2
20260903204603 84 191 6.0 15.0 0.00 0.22 0.22 66 1008.2
20260903203053 84 192 8.0 16.0 0.00 0.22 0.22 66 1008.2
20260903201550 84 187 8.0 17.0 0.00 0.22 0.22 65 1008.6
20260903200056 84 148 7.0 17.0 0.00 0.22 0.22 65 1008.9
20260903194545 84 192 8.0 15.0 0.00 0.22 0.22 64 1008.9
20260903193056 83 163 7.0 17.0 0.00 0.22 0.22 65 1009.1
20260903191600 83 132 6.0 13.0 0.00 0.22 0.22 64 1009.1
20260903190054 83 132 3.0 10.0 0.00 0.22 0.22 68 1009.1
20260903184551 81 117 4.0 12.0 0.00 0.22 0.22 68 1009.2
20260903183051 82 172 4.0 16.0 0.00 0.22 0.22 66 1009.2
20260903181542 83 126 6.0 20.0 0.00 0.22 0.22 64 1009.6
20260903180053 83 167 6.0 15.0 0.00 0.22 0.22 64 1009.7